Location: Campillo
(40.8621°N, 4.2488°W)
Time: 01:43:49
(UTC+00:00)

Cosmos 2154 Rocket - Pass Details

Date: 01 October 2021
Orbit: 965 x 997 km, 82.9° (Epoch: 21 October)

Event Time Altitude Azimuth Distance (km) Brightness Sun altitude
Rises 04:46:18 0° 2° (N) 3,697 7.2 -17.3°
Reaches altitude 10° 04:49:15 10° 14° (NNE) 2,740 6.7 -16.7°
Maximum altitude 04:54:33 28° 72° (ENE) 1,741 6.2 -15.7°
Drops below altitude 10° 04:59:47 10° 130° (SE) 2,708 6.9 -14.8°
Sets 05:02:39 0° 142° (SE) 3,647 7.4 -14.2°
